• In Uzbekistan
  • List of Countries
  • For 7 days
  • Water Temperature
  • Satellite Maps
  • Weather Map
  • Weather Widgets
  • user-avatar
    Login

    Hourly Weather Villeneuve-sur-Lot

    Today, 23 November, Thursday

    Time Temperature Precipitation Wind Pressure Humidity
    00:00 +9°C° 0 mm 5 mps 743 mmHg 83%
    01:00 +10°C° 0 mm 5 mps 743 mmHg 79%
    02:00 +10°C° 0 mm 5 mps 743 mmHg 75%
    03:00 +10°C° 0 mm 5 mps 743 mmHg 70%
    04:00 +10°C° 0 mm 5 mps 743 mmHg 70%
    05:00 +10°C° 0 mm 5 mps 744 mmHg 70%
    06:00 +11°C° 0 mm 4 mps 744 mmHg 69%
    07:00 +12°C° 0 mm 4 mps 744 mmHg 68%
    08:00 +12°C° 0 mm 4 mps 745 mmHg 66%
    09:00 +13°C° 0 mm 4 mps 745 mmHg 64%
    10:00 +14°C° 0 mm 4 mps 746 mmHg 59%
    11:00 +17°C° 0 mm 4 mps 746 mmHg 53%
    12:00 +18°C° 0 mm 4 mps 746 mmHg 48%
    13:00 +18°C° 0 mm 3 mps 746 mmHg 50%
    14:00 +18°C° 0 mm 3 mps 746 mmHg 52%
    15:00 +18°C° 0 mm 2 mps 746 mmHg 53%
    16:00 +17°C° 0 mm 2 mps 746 mmHg 60%
    17:00 +14°C° 0 mm 3 mps 746 mmHg 66%
    18:00 +13°C° 0 mm 3 mps 747 mmHg 73%
    19:00 +12°C° 0 mm 3 mps 747 mmHg 75%
    20:00 +12°C° 0 mm 4 mps 747 mmHg 77%
    21:00 +12°C° 0 mm 4 mps 747 mmHg 79%
    22:00 +12°C° 0 mm 4 mps 747 mmHg 80%
    23:00 +12°C° 0 mm 4 mps 746 mmHg 80%

    Tomorrow, 24 November, Friday

    Time Temperature Precipitation Wind Pressure Humidity
    00:00 +11°C° 0 mm 4 mps 746 mmHg 81%
    01:00 +12°C° 0 mm 4 mps 746 mmHg 79%
    02:00 +12°C° 0 mm 3 mps 747 mmHg 78%
    03:00 +12°C° 0 mm 3 mps 747 mmHg 76%
    04:00 +13°C° 0.2 mm 2 mps 747 mmHg 77%
    05:00 +12°C° 0.2 mm 2 mps 747 mmHg 78%
    06:00 +12°C° 0.2 mm 2 mps 747 mmHg 80%
    07:00 +13°C° 0 mm 2 mps 747 mmHg 79%
    08:00 +13°C° 0 mm 2 mps 748 mmHg 78%
    09:00 +13°C° 0 mm 2 mps 748 mmHg 77%
    10:00 +13°C° 0 mm 3 mps 748 mmHg 74%
    11:00 +14°C° 0 mm 3 mps 748 mmHg 71%
    12:00 +16°C° 0 mm 3 mps 747 mmHg 68%
    13:00 +16°C° 0 mm 2 mps 747 mmHg 68%
    14:00 +17°C° 0 mm 2 mps 747 mmHg 67%
    15:00 +17°C° 0 mm 2 mps 746 mmHg 67%
    16:00 +16°C° 0 mm 2 mps 746 mmHg 71%
    17:00 +15°C° 0 mm 2 mps 747 mmHg 74%
    18:00 +14°C° 0 mm 2 mps 747 mmHg 78%
    19:00 +13°C° 0 mm 3 mps 747 mmHg 79%
    20:00 +13°C° 0 mm 3 mps 746 mmHg 80%
    21:00 +12°C° 0 mm 4 mps 746 mmHg 81%
    22:00 +12°C° 0 mm 4 mps 746 mmHg 80%
    23:00 +13°C° 0 mm 4 mps 746 mmHg 79%

    Day after tomorrow, 25 November, Saturday

    Time Temperature Precipitation Wind Pressure Humidity
    00:00 +13°C° 0 mm 4 mps 746 mmHg 78%
    01:00 +12°C° 0.7 mm 4 mps 746 mmHg 81%
    02:00 +12°C° 0.7 mm 4 mps 746 mmHg 84%
    03:00 +12°C° 0.7 mm 4 mps 746 mmHg 87%
    04:00 +11°C° 0.6 mm 4 mps 747 mmHg 88%
    05:00 +10°C° 0.6 mm 4 mps 748 mmHg 88%
    06:00 +10°C° 0.6 mm 4 mps 749 mmHg 89%
    07:00 +10°C° 0.2 mm 4 mps 750 mmHg 86%
    08:00 +10°C° 0.2 mm 4 mps 751 mmHg 84%
    09:00 +8°C° 0.2 mm 5 mps 752 mmHg 81%
    10:00 +9°C° 0 mm 5 mps 752 mmHg 74%
    11:00 +9°C° 0 mm 5 mps 753 mmHg 67%
    12:00 +9°C° 0 mm 5 mps 753 mmHg 61%
    13:00 +10°C° 0 mm 4 mps 753 mmHg 59%
    14:00 +10°C° 0 mm 4 mps 754 mmHg 57%
    15:00 +8°C° 0 mm 4 mps 754 mmHg 56%
    16:00 +8°C° 0 mm 3 mps 754 mmHg 60%
    17:00 +7°C° 0 mm 2 mps 755 mmHg 64%
    18:00 +6°C° 0 mm 2 mps 755 mmHg 68%
    19:00 +6°C° 0 mm 1 mps 755 mmHg 69%
    20:00 +6°C° 0 mm 1 mps 756 mmHg 69%
    21:00 +5°C° 0 mm 1 mps 756 mmHg 69%
    22:00 +5°C° 0 mm 1 mps 756 mmHg 70%
    23:00 +5°C° 0 mm 1 mps 756 mmHg 70%

    26 November, Sunday

    Time Temperature Precipitation Wind Pressure Humidity
    00:00 +4°C° 0 mm 1 mps 756 mmHg 71%
    01:00 +4°C° 0 mm 1 mps 756 mmHg 71%
    02:00 +4°C° 0 mm 1 mps 756 mmHg 72%
    03:00 +4°C° 0 mm 1 mps 756 mmHg 73%
    04:00 +4°C° 0 mm 1 mps 757 mmHg 74%
    05:00 +4°C° 0 mm 1 mps 757 mmHg 75%
    06:00 +3°C° 0 mm 1 mps 757 mmHg 77%
    07:00 +4°C° 0 mm 1 mps 757 mmHg 75%
    08:00 +5°C° 0 mm 1 mps 758 mmHg 73%
    09:00 +6°C° 0 mm 1 mps 758 mmHg 71%
    10:00 +7°C° 0 mm 1 mps 758 mmHg 67%
    11:00 +8°C° 0 mm 2 mps 758 mmHg 63%
    12:00 +9°C° 0 mm 2 mps 758 mmHg 60%
    13:00 +9°C° 0 mm 2 mps 758 mmHg 60%
    14:00 +9°C° 0 mm 2 mps 758 mmHg 60%
    15:00 +9°C° 0 mm 2 mps 758 mmHg 60%
    16:00 +8°C° 0 mm 2 mps 758 mmHg 65%
    17:00 +6°C° 0 mm 2 mps 759 mmHg 71%
    18:00 +6°C° 0 mm 1 mps 759 mmHg 77%
    19:00 +6°C° 0 mm 1 mps 759 mmHg 77%
    20:00 +5°C° 0 mm 1 mps 759 mmHg 78%
    21:00 +5°C° 0 mm 1 mps 760 mmHg 78%
    22:00 +4°C° 0 mm 1 mps 760 mmHg 79%
    23:00 +4°C° 0 mm 1 mps 760 mmHg 80%

    27 November, Monday

    Time Temperature Precipitation Wind Pressure Humidity
    00:00 +4°C° 0 mm 1 mps 760 mmHg 81%
    01:00 +3°C° 0 mm 1 mps 760 mmHg 82%
    02:00 +3°C° 0 mm 1 mps 760 mmHg 83%
    03:00 +2°C° 0 mm 1 mps 760 mmHg 84%
    04:00 +2°C° 0 mm 1 mps 760 mmHg 85%
    05:00 +1°C° 0 mm 0 mps 760 mmHg 85%
    06:00 +1°C° 0 mm 0 mps 760 mmHg 86%
    07:00 +2°C° 0 mm 0 mps 760 mmHg 82%
    08:00 +3°C° 0 mm 0 mps 760 mmHg 77%
    09:00 +4°C° 0 mm 0 mps 760 mmHg 73%
    10:00 +5°C° 0 mm 0 mps 760 mmHg 67%
    11:00 +7°C° 0 mm 1 mps 760 mmHg 62%
    12:00 +9°C° 0 mm 1 mps 759 mmHg 57%
    13:00 +9°C° 0 mm 1 mps 759 mmHg 57%
    14:00 +9°C° 0 mm 1 mps 758 mmHg 57%
    15:00 +8°C° 0 mm 2 mps 758 mmHg 57%
    16:00 +8°C° 0 mm 1 mps 758 mmHg 63%
    17:00 +6°C° 0 mm 1 mps 758 mmHg 70%
    18:00 +5°C° 0 mm 1 mps 758 mmHg 76%
    19:00 +4°C° 0 mm 1 mps 758 mmHg 78%
    20:00 +4°C° 0 mm 1 mps 758 mmHg 80%
    21:00 +4°C° 0 mm 1 mps 758 mmHg 82%
    22:00 +3°C° 0 mm 1 mps 758 mmHg 83%
    23:00 +2°C° 0 mm 0 mps 758 mmHg 84%

    28 November, Tuesday

    Time Temperature Precipitation Wind Pressure Humidity
    00:00 +2°C° 0 mm 0 mps 757 mmHg 86%
    01:00 +1°C° 0 mm 0 mps 757 mmHg 86%
    02:00 +1°C° 0 mm 0 mps 757 mmHg 87%
    03:00 +1°C° 0 mm 0 mps 757 mmHg 88%
    04:00 +1°C° 0 mm 0 mps 756 mmHg 88%
    05:00 +1°C° 0 mm 0 mps 756 mmHg 89%
    06:00 +1°C° 0 mm 0 mps 756 mmHg 89%
    07:00 +3°C° 0 mm 1 mps 756 mmHg 85%
    08:00 +4°C° 0 mm 1 mps 756 mmHg 81%
    09:00 +5°C° 0 mm 1 mps 756 mmHg 77%
    10:00 +5°C° 0 mm 2 mps 755 mmHg 73%
    11:00 +6°C° 0 mm 2 mps 755 mmHg 69%
    12:00 +8°C° 0 mm 3 mps 754 mmHg 65%
    13:00 +8°C° 0 mm 3 mps 753 mmHg 66%
    14:00 +8°C° 0 mm 3 mps 753 mmHg 66%
    15:00 +9°C° 0 mm 3 mps 752 mmHg 67%
    16:00 +8°C° 0 mm 3 mps 751 mmHg 71%
    17:00 +7°C° 0 mm 3 mps 751 mmHg 75%
    18:00 +5°C° 0 mm 3 mps 751 mmHg 79%
    19:00 +5°C° 0.2 mm 4 mps 750 mmHg 81%
    20:00 +5°C° 0.2 mm 4 mps 749 mmHg 83%
    21:00 +5°C° 0.2 mm 5 mps 749 mmHg 84%
    22:00 +6°C° 0.6 mm 5 mps 748 mmHg 85%
    23:00 +5°C° 0.6 mm 6 mps 748 mmHg 87%
    Show more